Location: Saltaire
(40.6362°N, 73.1968°W)
Time: 01:56:25
(UTC+00:00)

Daily predictions for brighter satellites

Satellite Brightness Start Highest point End
(mag) Time Altitude Azimuth Time Altitude Azimuth Time Altitude Azimuth
MOS 1-B Rocket 4.3 00:22:44 10° NNE 00:29:44 58° E 00:35:43 10° S
Cosmos 1417 Rocket 4.5 00:26:17 10° S 00:32:29 77° E 00:38:38 10° N
IRIS 3.4 00:31:30 10° W 00:33:51 85° S 00:36:21 10° ESE
Cosmos 2082 Rocket 4.3 00:34:12 10° NNE 00:36:28 12° NE 00:38:45 10° ENE
Cosmos 1606 3.6 00:33:07 10° SSW 00:36:48 53° W 00:40:32 10° N
Cosmos 1503 Rocket 4.0 00:32:21 10° SSW 00:37:30 78° ESE 00:42:42 10° NNE
CZ-2C R/B 4.5 00:32:37 10° N 00:37:35 38° WNW 00:42:38 10° SW
Cosmos 1743 Rocket 4.1 00:33:20 10° NNW 00:37:39 62° W 00:41:57 10° S
Helios 1A Rocket 3.4 00:34:14 10° S 00:38:20 64° WSW 00:42:28 10° NNW
CZ-4 R/B 4.2 00:40:10 10° SW 00:42:41 16° W 00:45:11 10° NW
Ariane Rocket 3.3 00:37:49 10° SE 00:42:41 51° ENE 00:47:35 10° N
USA 290 2.1 00:40:01 10° NNW 00:43:15 84° ENE 00:46:26 10° SSE
COSMOS 2406 4.4 00:45:31 10° N 00:50:21 28° NE 00:54:51 11° ESE
Intercosmos 25 Rocket 3.6 00:45:29 10° N 00:50:40 80° W 00:54:10 10° S
DELTA 2 R/B (1) 4.3 00:47:40 10° W 00:52:53 42° SSW 00:57:37 12° SE
Cosmos 1933 3.3 00:49:37 10° S 00:53:39 85° E 00:57:42 10° N
Resurs 1-3 3.7 00:50:21 10° SSE 00:54:39 58° ENE 00:58:58 10° N
Tianhe-1 2.8 00:53:43 10° S 00:55:39 15° SSE 00:56:11 15° SE
Cosmos 1437 3.4 00:54:19 12° SSE 00:56:25 27° E 00:58:53 10° NNE
Cosmos 1666 Rocket 3.8 00:53:11 10° N 00:57:27 49° E 01:01:26 11° SSE
Meteor 1-20 Rocket 4.2 00:51:53 10° N 00:57:28 78° E 01:02:57 10° SSE
Cosmos 1844 Rocket 4.5 00:52:36 10° SW 00:57:42 36° WNW 01:02:50 10° N
IRS-1A Rocket 4.4 00:52:35 10° SSE 00:58:21 77° ENE 01:04:14 10° N
Cosmos 2278 Rocket 2.6 00:53:57 10° S 00:59:09 39° ESE 01:04:24 10° NE
Cosmos 1782 3.0 00:55:53 10° S 00:59:44 50° E 01:03:37 10° NNE
SJ 16-02 2.5 00:59:40 12° SSE 01:02:49 24° E 01:06:22 10° NE
Cosmos 1812 3.9 01:02:33 16° SE 01:04:39 24° E 01:07:47 10° NE
Sich 1 3.2 01:01:10 10° N 01:05:31 76° W 01:09:53 10° S
Cosmos 2084 4.3 01:06:10 10° SW 01:10:11 52° NW 01:14:19 10° NNE
Landsat 7 4.4 01:06:59 16° SE 01:10:25 40° ENE 01:14:51 10° N
Intercosmos 24 4.3 01:07:04 10° SSW 01:10:42 56° W 01:14:15 10° N
SJ-6B 3.9 01:07:13 10° S 01:10:57 45° W 01:14:47 10° NNW
Meteor 2-17 Rocket 4.5 01:05:04 10° N 01:11:14 71° E 01:17:19 10° SSE
CZ-4C R/B 3.3 01:05:41 10° NNW 01:12:55 59° NE 01:19:33 17° SE
ATLAS 5 CENTAUR R/B 2.7 01:07:57 10° NW 01:13:46 70° WSW 01:19:48 13° SSE
Cosmos 1151 Rocket 3.0 01:11:29 10° S 01:15:50 81° E 01:20:14 10° N
USA 305 4.2 01:14:38 10° NW 01:18:28 31° NNE 01:21:35 14° E
NOSS 3-3 (A) 4.4 01:14:30 10° SW 01:20:08 64° NW 01:26:33 10° NNE
NOSS 3-3 (C) 4.4 01:14:37 10° SW 01:20:15 65° NW 01:26:39 10° NNE
SPOT 1/Viking Rocket 4.2 01:22:52 20° SE 01:25:58 41° ENE 01:30:48 10° N
ATLAS 2AS CENTAUR R/B 4.2 01:20:39 10° NNW 01:26:43 26° NE 01:32:16 11° E
IGS 5A 3.4 01:27:12 22° SSE 01:29:49 71° ENE 01:33:57 10° N
Cosmos 1709 Rocket 4.0 01:24:56 10° N 01:31:03 86° W 01:36:46 12° S
BREEZE M DEB (TANK) 4.1 01:27:35 10° WNW 01:31:31 22° N 01:33:37 10° NE
Cosmos 1833 Rocket 2.8 01:31:08 10° NNW 01:36:45 63° ENE 01:39:57 26° SE
USA 306 3.8 01:34:01 10° NW 01:38:04 40° NNE 01:40:20 22° E
Cosmos 1500 3.0 01:36:19 10° N 01:40:04 77° E 01:41:40 32° SSE
SPOT 3 Rocket 3.5 01:37:38 20° SSE 01:41:17 89° WSW 01:46:28 10° NNW
CZ-2C R/B 3.6 01:36:49 10° NNE 01:41:19 71° ESE 01:44:53 17° S
SWARM A 4.3 01:39:31 10° N 01:42:47 53° E 01:43:24 45° SE
Cosmos 773 Rocket 4.2 01:38:22 10° NNW 01:43:40 73° WSW 01:47:07 22° S
Cosmos 2228 Rocket 4.0 01:43:57 28° ESE 01:44:35 29° E 01:48:26 10° NNE
Resurs 01 Rocket 1.8 01:41:40 20° S 01:44:42 69° WSW 01:49:09 10° NNW
Akebono 4.1 01:42:56 10° NNW 01:44:48 64° NW 01:44:48 64° NW
Cosmos 1538 Rocket 4.1 01:42:24 10° NNW 01:47:44 65° ENE 01:50:14 31° SE
GPS 2-04 Rocket1 3.2 01:44:44 10° WSW 01:48:38 40° S 01:49:13 38° SSE
Meteor 1-5 Rocket 4.1 01:44:19 10° N 01:49:39 67° E 01:52:15 30° SSE
Spot 2 Rocket 3.8 01:47:58 30° SE 01:50:06 49° ENE 01:54:57 10° N
ERS-1 Rocket 3.9 01:49:56 27° ESE 01:51:37 34° ENE 01:56:07 10° N
CRYOSAT 2 4.4 01:49:10 21° S 01:52:25 82° W 01:57:21 10° N
X-37B 1.8 01:51:28 10° W 01:54:19 30° SSW 01:54:19 30° SSW
deb Kosmos-1763 3.9 01:51:31 10° NNW 01:55:03 66° ENE 01:55:36 55° ESE
Cosmos 1515 Rocket 3.5 01:53:19 21° S 01:56:16 83° W 02:00:41 10° N
Cosmos 2297 4.4 02:00:18 31° ESE 02:00:45 31° ESE 02:05:40 10° NE
Delta 2 Rocket 3.9 01:57:41 10° WSW 02:02:30 45° S 02:03:03 43° SSE
Meteor 1-10 Rocket 4.1 02:00:51 25° S 02:04:10 75° E 02:09:50 10° NNE
Cosmos 1633 Rocket 4.5 02:00:41 10° NNW 02:04:41 34° W 02:07:59 14° SSW
Cosmos 1869 Rocket 4.4 02:01:00 10° NNE 02:04:55 33° ENE 02:05:16 32° E
JB-3 4.2 02:01:26 10° NNE 02:05:16 60° E 02:05:36 57° SE
USA 307 3.2 02:01:30 10° NW 02:05:44 59° NE 02:06:53 42° E
Cosmos 1271 Rocket 2.7 02:11:53 47° SSW 02:13:00 84° WNW 02:17:01 10° N
Terra 2.4 02:17:08 37° E 02:17:51 40° ENE 02:22:17 10° N
USA 308 2.9 02:15:11 10° NW 02:19:29 76° NE 02:20:06 62° E
Cosmos 2082 Rocket 2.1 02:15:56 10° NNW 02:21:34 74° ENE 02:23:13 47° SE
CARTOSAT-1 3.4 02:21:09 61° SSE 02:21:54 89° ENE 02:26:14 10° NNW
H-2A R/B 4.2 02:18:02 10° NNE 02:21:19 37° ENE 02:21:19 37° ENE
ARIANE 5 R/B 2.7 02:31:09 55° SSW 02:31:52 66° WSW 02:36:11 10° NNW
Cosmos 1933 Rocket 4.3 02:29:12 10° NNW 02:33:21 46° W 02:34:30 37° SW
SPOT 5 2.9 02:33:36 57° SSE 02:34:42 85° ENE 02:40:01 10° NNW
COSMOS 2406 4.0 02:29:28 10° NW 02:34:48 43° WSW 02:36:56 30° SSW
Cosmos 1898 Rocket 3.5 02:34:06 58° SSE 02:34:50 65° ESE 02:40:07 10° NNE
Cosmos 1943 Rocket 2.4 02:39:12 48° ESE 02:39:12 48° ESE 02:44:28 10° NE
Cosmos 923 Rocket 3.9 02:35:07 10° NNW 02:40:25 82° ENE 02:41:15 64° SE
Cosmos 990 Rocket 3.9 02:39:27 48° SSW 02:40:58 89° WNW 02:46:15 10° NNE
SJ 16-02 3.2 02:37:20 10° SW 02:41:14 30° WNW 02:45:08 10° N
DNEPR-1 R/B 4.1 02:41:13 51° S 02:42:34 67° ESE 02:47:45 10° NE
Cosmos 2278 Rocket 4.0 02:38:23 10° WSW 02:43:18 30° WNW 02:48:15 10° N
Cosmos 1666 4.0 02:41:52 10° NNW 02:45:11 31° W 02:45:30 30° WSW
Iridium 4 Rocket 4.4 02:42:49 27° SSW 02:45:51 53° W 02:51:38 10° N
Meteor 2-12 Rocket 4.4 02:43:26 10° N 02:49:29 76° W 02:51:13 48° SSW
Cosmos 2369 Rocket 3.4 02:51:16 27° ENE 02:51:16 27° ENE 02:54:42 10° NE
Cosmos 1733 Rocket 4.2 02:48:33 10° N 02:51:43 32° NE 02:51:43 32° NE
Meteor 1-27 Rocket 4.0 02:52:26 37° SSW 02:54:43 67° WNW 03:00:38 10° N
USA 305 3.8 02:54:26 10° WNW 02:57:39 40° W 02:57:39 40° W
SL-8 Rocket 4.4 02:53:47 10° N 02:59:51 46° ENE 03:00:36 44° E
CZ-4C R/B 4.0 02:54:35 10° NW 03:01:29 37° WSW 03:04:45 27° SSW
Cosmos 1544 4.3 02:59:36 10° N 03:02:04 41° NNW 03:02:04 41° NNW
Cosmos 2084 Rocket 4.3 03:00:04 10° NNW 03:03:54 43° NE 03:03:54 43° NE
NOSS 3-4 (A) 4.1 02:57:58 10° NW 03:05:02 62° WSW 03:07:09 46° S
NOSS 3-4 (C) 4.1 02:58:04 10° NW 03:05:09 62° WSW 03:07:15 47° S
Cosmos 1340 Rocket 3.4 03:02:15 10° N 03:05:30 55° NNW 03:05:30 55° NNW
Cosmos 1238 Rocket 3.9 03:01:13 10° N 03:06:56 53° ENE 03:06:56 53° ENE
Cosmos 1743 3.7 03:03:47 10° N 03:06:30 43° N 03:06:30 43° N
Meteor 1-19 Rocket 4.4 03:12:03 54° ENE 03:12:03 54° ENE 03:16:52 10° NNE
ATLAS 2AS CENTAUR R/B 2.6 03:11:16 10° NW 03:18:33 83° WSW 03:19:41 65° SSE
Cosmos 2112 Rocket 4.0 03:13:38 10° NNW 03:18:58 71° WSW 03:19:01 71° WSW
Cosmos 1536 4.5 03:21:38 10° NNW 03:24:37 29° WNW 03:24:37 29° WNW
Cosmos 962 Rocket 4.4 03:20:40 10° N 03:26:47 75° W 03:27:28 67° SW
Cosmos 1959 Rocket 4.5 03:22:47 10° N 03:28:57 63° E 03:29:12 62° E
Meteor 2-4 Rocket 4.3 03:30:52 45° ENE 03:30:52 45° ENE 03:35:33 10° NNE
ERS-1 Rocket 4.4 03:29:55 27° WSW 03:30:24 27° W 03:34:41 10° NW
Cosmos 1937 Rocket 4.0 03:33:12 48° W 03:33:48 51° WNW 03:38:51 10° N
Cosmos 1862 Rocket 4.4 03:35:48 46° N 03:35:48 46° N 03:38:55 10° N
Cosmos 1975 4.4 03:37:41 10° N 03:39:56 31° N 03:39:56 31° N
RESURS DK-1 4.3 03:44:27 10° N 03:47:03 25° NNE 03:47:03 25° NNE
Cosmos 2181 Rocket 4.1 03:53:39 62° WSW 03:54:11 65° W 04:00:17 10° N
Terra 3.7 03:56:01 21° W 03:56:01 21° W 03:59:18 10° NW
Milstar 3 4.3 03:48:44 10° WSW 03:56:12 31° SW 03:56:12 31° SW
Cosmos 1821 Rocket 4.4 03:54:33 10° N 04:00:46 50° ENE 04:00:53 50° E
Cosmos 2366 rocket 3.9 03:54:46 10° N 04:00:57 74° W 04:01:02 73° WSW
Cosmos 2082 Rocket 4.3 04:02:01 10° WNW 04:04:56 14° W 04:05:04 14° W
Cosmos 1607 4.0 04:12:57 76° W 04:13:17 79° WNW 04:19:49 10° NNE
ALOS 2 3.9 04:14:52 39° N 04:14:52 39° N 04:17:42 10° N
Centaur D AC-29 4.3 03:55:16 10° WSW 04:19:09 33° SW 04:19:09 33° SW
Cosmos 1943 Rocket 4.0 04:20:39 19° W 04:23:04 25° NW 04:27:41 10° N
SeaSat 1 4.3 04:19:15 10° NE 04:21:16 20° ENE 04:21:16 20° ENE
ATLAS CENTAUR R/B 3.7 04:30:12 18° NNE 04:30:12 18° NNE 04:31:21 10° NNE
Cosmos 2369 Rocket 3.2 04:33:00 36° WNW 04:33:43 38° WNW 04:38:58 10° N
Cosmos 1656 Rocket 4.2 04:38:22 53° NW 04:38:22 53° NW 04:43:28 10° NNE
Nadezhda 3 Rocket 4.0 04:41:02 77° WNW 04:41:02 77° WNW 04:47:03 10° N
BREEZE-M DEB (TANK) 3.9 04:32:41 10° WNW 04:43:38 75° NNW 04:43:38 75° NNW
Lacrosse 5 3.3 04:48:12 30° ENE 04:48:12 30° ENE 04:50:50 10° NE
Cosmos 1125 Rocket 4.2 04:54:49 49° NW 04:54:49 49° NW 04:59:10 10° N
USA 215 4.2 04:51:52 12° E 04:57:31 45° NNE 05:03:40 10° NW
Cosmos 1605 Rocket 4.3 05:00:30 10° N 05:06:40 57° E 05:06:53 56° E
EO 1 Delta rocket 4.4 05:18:58 69° N 05:18:58 69° N 05:24:16 10° N
Cosmos 2227 Rocket 4.3 05:20:52 10° N 05:25:05 21° NE 05:29:12 10° E
Cosmos 2297 Rocket 3.9 05:23:10 10° N 05:27:58 28° NE 05:30:43 19° E
ISS -0.4 05:30:21 10° NNW 05:31:57 13° N 05:33:34 10° NNE
USA 81 4.4 05:27:12 10° N 05:31:39 64° N 05:31:39 64° N
NOSS 2-1 (C) 4.3 05:31:04 10° NW 05:36:00 81° NW 05:36:00 81° NW
Cosmos 1934 Rocket 4.5 05:36:41 10° NNW 05:41:59 46° WNW 05:41:59 46° WNW
NOSS 2-1 (D) 4.4 05:37:54 10° NW 05:42:38 71° WNW 05:42:38 71° WNW
Cosmos 1656 4.3 05:45:16 45° E 05:45:16 45° E 05:49:56 10° NE
Cosmos 2344 4.5 05:43:41 10° NW 05:53:31 65° WSW 05:58:24 42° S
Cosmos 1707 4.5 05:58:22 31° NNE 05:58:22 31° NNE 06:00:32 10° NNE
Okean 1 Rocket 4.1 05:54:24 10° N 05:57:25 44° N 05:57:25 44° N
SeaSat 1 3.4 05:56:32 10° N 06:01:03 37° NW 06:01:03 37° NW
COSMOS 2455 3.0 05:57:07 10° NNW 06:03:08 69° ENE 06:04:24 54° ESE
CZ-4 R/B 4.2 06:02:41 10° N 06:06:47 59° NNW 06:06:47 59° NNW
Meteor 2-20 4.5 06:07:18 64° W 06:07:33 65° W 06:13:41 10° N
Cosmos 1727 Rocket 3.9 06:09:20 67° WSW 06:09:47 70° W 06:16:08 10° N
Cosmos 371 Rocket 3.7 06:10:20 58° ENE 06:10:20 58° ENE 06:14:37 10° NNE
Helios 1B rocket 3.7 06:08:21 10° NNE 06:11:27 37° ENE 06:11:27 37° ENE
Cosmos 2219 3.8 06:07:08 10° NNW 06:12:44 53° ENE 06:14:52 35° ESE
SL-16 R/B 2.9 06:15:31 37° SE 06:17:54 60° ENE 06:24:04 10° N
ADEOS II 3.3 06:20:04 10° NE 06:24:43 31° E 06:25:56 28° ESE
Lacrosse 4 Rocket 2.7 06:26:20 34° E 06:26:20 34° E 06:29:54 10° NE
Lacrosse 5 3.5 06:27:22 23° WNW 06:29:06 28° NNW 06:33:29 10° NNE
Cosmos 1953 3.3 06:25:17 10° N 06:28:48 44° ENE 06:28:48 44° ENE
NPP 3.7 06:26:27 10° NNE 06:31:50 66° ESE 06:32:31 59° SE
AQUA 4.3 06:27:23 10° NNE 06:32:01 50° E 06:32:19 50° ESE
CZ-2D R/B 2.0 06:27:13 10° NNE 06:32:38 82° ESE 06:33:07 73° SSE
Cosmos 1455 Rocket 3.2 06:32:25 10° N 06:36:33 68° ENE 06:36:33 68° ENE
Resurs 1-4 Rocket 1.9 06:33:30 10° NNE 06:38:47 86° WNW 06:39:15 75° SSW
USA 215 3.2 06:39:06 51° S 06:40:22 60° SW 06:46:50 10° NW
MOZ.5/SAFIR/RUBIN 5/SL-8 4.4 06:42:26 42° WNW 06:42:26 42° WNW 06:45:57 10° NNW
Cosmos 1725 Rocket 4.2 06:35:59 10° N 06:42:12 65° E 06:44:56 34° SSE
Cosmos 2360 4.4 06:42:06 53° SSE 06:43:08 62° ESE 06:48:49 10° NNE
Cosmos 1697 Rocket 2.6 06:42:23 62° SSE 06:43:13 74° ESE 06:48:49 10° NNE
Meteor 1-29 4.2 06:42:08 10° NNE 06:44:36 39° NE 06:44:36 39° NE
Cosmos 407 Rocket 4.5 06:40:21 10° N 06:45:31 46° ENE 06:49:35 16° SE
Cosmos 1459 Rocket 3.9 06:40:17 10° NNW 06:46:29 67° W 06:47:34 56° SW
Meteor 1-16 Rocket 4.3 06:41:37 10° N 06:47:34 80° E 06:49:29 45° SSE
Cosmos 1674 3.2 06:50:39 54° NNW 06:50:39 54° NNW 06:53:43 10° N
Cosmos 1726 4.5 06:47:46 10° NW 06:48:44 15° NW 06:48:44 15° NW
USA 281 3.2 06:49:16 49° SSW 06:50:52 63° WSW 06:57:25 10° NNW
GP-B 4.4 06:47:45 10° NNE 06:51:52 36° E 06:53:21 28° SE
Cosmos 1980 Rocket 2.8 06:54:10 37° SSE 06:55:52 48° ESE 07:01:18 10° NE
Cosmos 2016 Rocket 3.9 06:50:07 10° N 06:56:22 84° W 06:58:27 45° S
Meteor 2-11 Rocket 4.4 06:51:07 10° NNW 06:57:16 71° W 06:58:54 50° SSW
SL-14 R/B 4.0 06:59:18 43° ESE 06:59:43 45° E 07:03:30 10° NNE
Cosmos 2173 Rocket 4.2 06:56:45 10° NNW 07:02:39 49° W 07:03:45 44° WSW
Cosmos 2061 Rocket 3.9 06:59:53 10° N 07:06:14 75° W 07:08:42 40° S
Timation 2 Rocket 3.8 07:00:38 10° NNW 07:06:31 62° WSW 07:08:17 44° SSW
Cosmos 1626 2.1 07:07:59 74° N 07:07:59 74° N 07:11:24 10° N
Cosmos 1975 Rocket 4.0 07:08:32 34° WNW 07:08:32 34° WNW 07:12:14 10° N
Cosmos 2227 Rocket 2.1 07:04:00 10° NNW 07:09:34 62° WSW 07:10:57 47° SSW
TSX-5 4.2 07:06:01 10° NNW 07:08:44 49° NW 07:08:44 49° NW
ISS -1.1 07:06:59 10° NNW 07:09:43 22° NNE 07:12:26 10° ENE
UNK 4.0 07:11:24 48° W 07:11:24 48° W 07:15:40 10° NNW
Cosmos 1315 Rocket 4.4 07:08:14 10° NNW 07:10:25 24° WNW 07:10:25 24° WNW
Cosmos 2297 Rocket 2.5 07:06:49 10° NW 07:12:10 44° WSW 07:12:27 44° WSW
Cosmos 2285 Rocket 4.2 07:10:17 34° S 07:13:09 68° ESE 07:19:33 10° NNE
Cosmos 304 Rocket 3.9 07:13:22 51° WSW 07:14:04 57° WNW 07:18:48 10° N
Cosmos 2056 Rocket 3.5 07:13:38 46° S 07:15:07 75° ESE 07:20:15 10° NNE
DELTA 2 DEB (DPAF) 4.2 07:14:05 37° SSE 07:15:48 77° ENE 07:20:15 10° N
Cosmos 2369 3.7 07:14:44 46° SW 07:16:32 80° WNW 07:22:18 10° NNE
Cosmos 2278 3.9 07:15:39 36° S 07:17:56 65° ESE 07:23:36 10° NNE
ARGOS Delta rocket 3.9 07:14:18 10° N 07:18:57 62° WNW 07:20:01 49° SW
SL-19 R/B 4.4 07:15:35 10° N 07:20:59 54° WNW 07:22:31 40° WSW
Cosmos 1023 Rocket 4.4 07:17:00 10° NNW 07:22:16 88° ENE 07:25:58 20° SSE
Cosmos 1300 3.4 07:19:25 10° N 07:23:09 51° E 07:24:55 27° SE
Cosmos 2082 3.6 07:19:33 10° NNW 07:25:17 89° WSW 07:31:00 10° SSE
Cosmos 1371 Rocket 3.9 07:26:14 43° SW 07:27:57 74° WNW 07:33:09 10° NNE
OAO 2 Rocket 3.9 07:29:24 39° SSW 07:30:13 41° S 07:35:12 10° ESE
SL-16 R/B 4.0 07:26:55 10° SSE 07:31:27 25° ESE 07:36:00 10° NE
Cosmos 1025 Rocket 3.7 07:31:57 37° W 07:32:23 38° WNW 07:36:29 10° N
IRS-1D 3.6 07:33:12 10° N 07:38:32 68° WNW 07:40:54 33° SW
Cosmos 1140 Rocket 3.4 07:34:48 10° NNW 07:39:59 67° WSW 07:43:34 20° S
Iridium 2 3.7 07:42:04 48° SW 07:42:50 62° W 07:46:37 10° N
IDEFIX/ARIANE 42P 2.5 07:40:24 10° NNE 07:45:42 88° ESE 07:48:54 25° SSW
Helios 1B rocket 4.3 07:44:37 10° NNW 07:47:10 16° WNW 07:47:45 16° WNW
COSMOS 2455 4.3 07:44:30 10° WNW 07:47:29 18° W 07:47:29 18° W
Cosmos 1340 2.5 07:49:44 39° SSW 07:51:00 77° W 07:54:46 10° N
Meteor 1-28 Rocket 3.4 07:53:43 38° SW 07:54:33 46° W 07:58:08 10° NNW
IUS-18 SRM-1 4.4 07:55:12 15° S 07:55:49 16° SSE 07:59:41 10° SE
Cosmos 2219 4.4 07:52:13 10° NW 07:56:26 22° W 07:56:43 21° WSW
Meteor 2-10 Rocket 4.1 07:52:41 10° N 07:58:22 65° ENE 08:03:48 10° SSE
Cosmos 2322 Rocket 3.6 07:53:40 10° SSE 07:58:40 33° ESE 08:03:42 10° NE
SL-16 R/B 3.7 08:00:36 20° WSW 08:01:52 21° W 08:06:31 10° NW
ADEOS II 3.0 07:59:43 10° N 08:04:20 32° WNW 08:06:52 21° WSW
NOSS 3-2 (A) 4.0 08:00:10 15° S 08:04:24 47° ESE 08:10:15 10° NE
Lacrosse 4 Rocket 3.1 08:02:37 18° W 08:04:35 24° NW 08:08:13 10° N
Cosmos 2263 Rocket 2.6 07:59:12 10° NNW 08:04:49 65° ENE 08:10:27 10° SSE
Cosmos 1190 Rocket 4.3 08:00:12 10° NNW 08:05:10 46° WSW 08:09:34 13° S
Meteor 1-24 Rocket 3.7 08:01:33 21° SSW 08:05:14 66° W 08:10:38 10° N
ARIANE 5 R/B 2.6 08:00:16 10° NNE 08:05:25 80° ESE 08:09:44 14° S
IRS-P3 4.1 08:00:11 10° NNE 08:05:33 81° WNW 08:09:39 18° SSW
Cosmos 1420 Rocket 4.2 08:07:40 23° SW 08:10:46 54° WNW 08:15:52 10° N
Cosmos 1726 Rocket 4.1 08:06:54 10° N 08:11:15 62° E 08:15:36 10° SSE
Cosmos 1606 Rocket 3.6 08:06:54 10° N 08:11:20 81° E 08:15:46 10° S
CZ-2D R/B 4.1 08:09:16 10° NNW 08:11:55 14° WNW 08:14:26 10° W
Cosmos 2228 2.9 08:09:04 10° N 08:13:22 79° W 08:17:39 10° S
Lacrosse 5 4.5 08:11:21 10° NW 08:13:40 13° N 08:15:59 10° NNE
CZ-4B R/B 3.5 08:11:04 10° N 08:16:05 77° WNW 08:20:30 14° SSW
Resurs 1-4 Rocket 4.2 08:16:06 10° NW 08:17:46 11° WNW 08:19:27 10° WNW
USA 238 DEB 4.3 08:12:03 10° S 08:18:14 49° ESE 08:24:42 10° NE
USA 238 4.4 08:12:10 10° S 08:18:21 48° ESE 08:24:47 10° NE
ADEOS Rocket 3.9 08:12:28 10° SSW 08:19:26 45° W 08:26:49 10° NNW
Cosmos 2360 Rocket 3.9 08:16:39 10° SSE 08:21:26 29° ESE 08:26:14 10° NE
Cosmos 1513 Rocket 4.4 08:18:28 10° N 08:24:40 78° W 08:30:44 10° S
Meteor 2-5 Rocket 4.5 08:21:35 18° SW 08:25:14 36° WNW 08:30:22 10° N
Cosmos 1697 Rocket 4.5 08:24:06 10° W 08:27:47 18° NW 08:31:31 10° N
Cosmos 676 Rocket 4.3 08:24:02 10° NNW 08:29:04 47° WSW 08:34:07 10° S
Cosmos 1464 Rocket 3.9 08:23:55 10° N 08:30:06 77° W 08:36:18 10° S
Atlas Centaur 2 3.8 08:28:29 13° SW 08:33:30 26° SSE 08:38:40 10° ESE
Cosmos 405 3.8 08:32:19 10° NNW 08:35:25 30° W 08:38:01 13° SSW
Cosmos 292 Rocket 4.1 08:32:03 15° SW 08:35:59 52° WNW 08:40:46 10° N
Aureole 2 Rocket 2.5 08:35:35 10° NW 08:38:02 31° WSW 08:40:28 10° S
Cosmos 1980 Rocket 3.5 08:35:56 12° WSW 08:40:06 26° NW 08:44:48 10° N
CENTAUR R/B 2.9 08:34:43 10° SSW 08:40:16 60° ESE 08:46:52 10° NE
Cosmos 2034 Rocket 4.1 08:33:57 10° N 08:40:20 90° ENE 08:46:38 10° S
Cosmos 2227 4.2 08:40:36 10° NNW 08:46:13 66° WSW 08:51:45 10° S
ISS -3.8 08:43:26 10° WNW 08:46:47 67° SW 08:50:08 10° SE
PAYLOAD A 3.8 08:45:02 10° N 08:49:45 81° WNW 08:54:26 10° SSW
Cosmos 1331 Rocket 4.1 08:48:46 10° SSW 08:53:55 84° ESE 08:59:07 10° NNE
Cosmos 1452 Rocket 4.1 08:49:51 10° SW 08:54:50 42° WNW 08:59:51 10° N
Aureole 1 Rocket 2.9 08:52:34 10° NNW 08:56:04 80° ENE 09:00:29 10° SSE
CZ-2D R/B 4.3 08:52:55 10° N 08:57:01 39° WNW 09:01:07 10° SW
Cosmos 1184 Rocket 3.6 08:56:10 10° S 08:59:15 50° E 09:02:23 10° NNE
FENGYUN 3A 3.9 08:57:45 10° NNE 09:03:09 77° ESE 09:08:32 10° S
Spot 4 Rocket 4.5 09:01:17 10° N 09:06:11 46° WNW 09:11:04 10° SW
CZ-2C R/B 2.7 09:01:12 10° N 09:06:16 62° WNW 09:11:23 10° SSW
ASTEX 1 4.3 09:02:38 10° SSE 09:07:29 56° E 09:12:22 10° N
Cosmos 1346 Rocket 3.8 09:04:53 10° SW 09:08:18 29° WNW 09:11:45 10° NNW
Cosmos 389 Rocket 2.8 09:05:51 10° NNW 09:09:12 44° W 09:12:30 10° SSW
PSLV R/B 3.5 09:05:02 10° NNE 09:09:15 89° ESE 09:13:28 10° SSW
ALOS 2.4 09:07:03 10° NNE 09:11:45 87° E 09:16:25 10° SSW
